Location: Bratsk-Energetik
(56.3300°N, 101.7600°E)
Time: 12:15:26
(UTC+08:00)

ISS - Pass Details

Date: 13 July 2018
Orbit: 402 x 408 km, 51.6° (Epoch: 21 July)

Event Time Altitude Azimuth Distance (km) Brightness Sun altitude
Exits shadow 03:20:21 - 229° (SW) 1,525 -1.5 -7.7°
Reaches altitude 10° 03:20:30 10° 228° (SW) 1,468 -1.6 -7.7°
Maximum altitude 03:23:24 29° 165° (SSE) 777 -2.8 -7.5°
Drops below altitude 10° 03:26:20 10° 103° (ESE) 1,474 -0.8 -7.3°
Sets 03:28:34 0° 92° (E) 2,337 0.4 -7.1°
